INTELSAT 17 (IS-17)

Last updated on Jan. 28, 2020, 4:41 a.m. UTC

1 37238U 10065B   20027.89975008 -.00000005  00000-0  00000-0 0  9998
2 37238   0.0048  86.1665 0002423 228.0281 202.3244  1.00271940 30052
UTC
Height (km)
Latitude
Longitude
Inclination
Orbital Period
UTC large
Height (km)
Speed (km/s)
/
Latitude / Longitude
Inclination (degrees)
Orbital Period (minutes)
Azimuth
Elevation
Range (km)
Doppler Factor
iOS Compass Heading
iOS Angle

Next 30 passes for location: Hong Kong

Rise time Rise Azimuth (degrees) Set time Set Azimuth (degrees) Duration Max altitude (degrees)

No matching passes for this satellites